Home > Weather > Virudhunagar > Past weeks

Flag for India Past Weather in Virudhunagar, Tamil Nadu, India — Yesterday and Last 2 Weeks

Now
84 °F

Passing clouds.


Feels Like: 88 °F
Forecast: 81 / 101 °F
Wind: 10 mph from West

Location: Tiruchchirapalli

Current Time: Jul 1, 2016 at 1:13:31 AM

Latest Report: Jul 1, 2016 at 12:30 AM


Visibility: 4 mi

Pressure: 29.71 "Hg

Humidity: 62%

Dew Point: 70 °F

Location of VirudhunagarLocation

Past Weather in Virudhunagar — Graph

°F

Virudhunagar Temperature Yesterday

Maximum temperature yesterday: 95 °F (at 1:30 PM)
Minimum temperature yesterday: 82 °F (at 3:30 AM)
Average temperature yesterday: 87 °F

High & Low Weather Summary for the Past Weeks

 TemperatureHumidityPressure
High100 °F (Jun 20, 3:00 PM)94% (Jun 18, 10:30 PM)29.80 "Hg (Jun 18, 10:30 PM)
Low77 °F (Jun 18, 10:30 PM)35% (Jun 20, 3:00 PM)29.56 "Hg (Jun 17, 3:30 PM)
Average87 °F57%29.68 "Hg
* Reported Jun 15 11:30 PM — Jul 1 12:00 AM, Virudhunagar, Weather by CustomWeather, © 2016

Note: Actual official high and low records may vary slightly from our data, if they occured in-between our weather recording intervals... More about our weather records

Advertising

Virudhunagar Weather History for the Previous 24 Hours

Scroll right to see more
 ConditionsComfort  
Time TempWeatherWind HumidityBarometerVisibility
12:00 AM
Fri, Jul 1
84 °FPassing clouds.14 mph58%29.74 "Hg4 mi
11:30 PM
Thu, Jun 30
84 °FPassing clouds.16 mph58%29.74 "Hg4 mi
11:00 PM84 °FPassing clouds.17 mph58%29.74 "Hg4 mi
10:30 PM84 °FPassing clouds.10 mph58%29.74 "Hg4 mi
10:00 PM86 °FPassing clouds.10 mph55%29.74 "Hg4 mi
9:30 PM86 °FPassing clouds.12 mph55%29.74 "Hg4 mi
9:00 PM86 °FPassing clouds.15 mph52%29.74 "Hg4 mi
8:30 PM86 °FPassing clouds.15 mph52%29.71 "Hg4 mi
8:00 PM86 °FPassing clouds.17 mph52%29.71 "Hg4 mi
7:30 PM88 °FPassing clouds.17 mph49%29.68 "Hg4 mi
7:00 PM88 °FScattered clouds.18 mph49%29.68 "Hg4 mi
6:30 PM90 °FPassing clouds.25 mph46%29.68 "Hg4 mi
6:00 PM91 °FPassing clouds.21 mph44%29.65 "Hg4 mi
4:30 PM93 °FPassing clouds.22 mph44%29.65 "Hg4 mi
4:00 PM95 °FPassing clouds.21 mph39%29.65 "Hg4 mi
3:30 PM95 °FPassing clouds.21 mph39%29.65 "Hg5 mi
3:00 PM95 °FScattered clouds.22 mph39%29.65 "Hg5 mi
2:30 PM95 °FScattered clouds.22 mph39%29.65 "Hg5 mi
2:00 PM95 °FScattered clouds.12 mph41%29.68 "Hg5 mi
1:30 PM95 °FScattered clouds.12 mph41%29.68 "Hg5 mi
1:00 PM93 °FScattered clouds.13 mph44%29.68 "Hg5 mi
12:30 PM93 °FScattered clouds.9 mph44%29.71 "Hg5 mi
11:00 AM91 °FPartly sunny.14 mph46%29.74 "Hg5 mi
10:30 AM91 °FPartly sunny.14 mph46%29.74 "Hg5 mi
10:00 AM90 °FPartly sunny.12 mph49%29.74 "Hg5 mi
9:30 AM90 °FPartly sunny.12 mph49%29.74 "Hg5 mi
9:00 AM88 °FPartly sunny.12 mph55%29.74 "Hg5 mi
8:30 AM86 °FPartly sunny.12 mph59%29.74 "Hg4 mi
8:00 AM84 °FPartly sunny.12 mph62%29.71 "Hg4 mi
7:30 AM82 °FBroken clouds.12 mph66%29.71 "Hg4 mi
7:00 AM82 °FBroken clouds.8 mph66%29.71 "Hg4 mi
6:30 AM82 °FPartly sunny.12 mph66%29.71 "Hg4 mi
6:00 AM82 °FPassing clouds.8 mph66%29.71 "Hg4 mi
5:30 AM82 °FPassing clouds.8 mph66%29.68 "Hg4 mi
5:00 AM82 °FPassing clouds.12 mph66%29.68 "Hg4 mi
4:30 AM82 °FPartly cloudy.9 mph62%29.68 "Hg4 mi
4:00 AM82 °FPartly cloudy.9 mph62%29.71 "Hg4 mi
3:30 AM82 °FPartly cloudy.9 mph62%29.71 "Hg4 mi
3:00 AM84 °FPartly cloudy.9 mph58%29.71 "Hg4 mi
2:30 AM84 °FPartly cloudy.9 mph58%29.71 "Hg4 mi
2:00 AM84 °FPartly cloudy.9 mph58%29.71 "Hg4 mi
1:30 AM84 °FPartly cloudy.9 mph62%29.71 "Hg4 mi
1:00 AM84 °FPartly cloudy.12 mph62%29.71 "Hg4 mi
Weather by CustomWeather, © 2016

See weather overviewHow to use our weather pages